Tracking 19831 objects as of 23-Aug-2019
HD Live streaming from Space Station
objects crossing your sky now

FENGYUN 1C DEB

Track FENGYUN 1C DEB now!
10-day predictions


NORAD ID: 37474
Int'l Code: 1999-025EJU
Perigee: 607.6 km
Apogee: 917.6 km
Inclination: 99.2 °
Period: 99.9 minutes
Semi major axis: 7133 km
RCS: 0.0095 m2 (small)
Launch date: May 10, 1999
Source: People's Republic of China (PRC)
Launch site: Taiyaun Space Center, China (TSC)

Note: This is SATELLITE DEBRIS
aabbcc
Your satellite tracking list
Your tracking list is empty




NASA's NSSDC Master Catalog

Two Line Element Set (TLE):
1 37474U 99025EJU 19234.15456830 +.00000361 +00000-0 +99483-4 0  9998
2 37474 099.1799 206.0473 0217260 171.8515 188.6295 14.40920940497720
Source of the keplerian elements: AFSPC